Flag for India Weather past 2 weeks in Vellore, Tamil Nadu, India

Now
86 °F

Passing clouds.


Feels Like: 97 °F
Forecast: 81 / 98 °F
Wind: 7 mph from West

Location: Madras / Minambakkam

Current Time: Jul 8, 2015 at 3:36:25 AM

Latest Report: Jul 8, 2015 at 2:40 AM


Visibility: 4 mi

Pressure: 29.62 "Hg

Humidity: 75%

Dew point: 77 °F

Location of VelloreLocation

Historic Weather in Vellore — Graph

°F

Vellore temperature yesterday

Maximum temperature yesterday: 102 °F (at 1:10 PM)
Minimum temperature yesterday: 86 °F (at 5:40 AM)
Average temperature yesterday: 91 °F

Past Weeks' High & Low Weather Summary

 TemperatureHumidityPressure
High104 °F (Jul 5, 2:40 PM)89% (Jun 27, 10:40 PM)29.83 "Hg (Jun 27, 10:40 PM)
Low81 °F (Jun 30, 1:10 AM)26% (Jul 6, 3:10 PM)29.56 "Hg (Jun 25, 3:10 PM)
Average91 °F58%29.69 "Hg
* Reported Jun 23 1:40 AM — Jul 8 1:40 AM, Vellore, Weather by CustomWeather, © 2015

Note: Actual official high and low records may vary slightly from our data, if they occured in-between our weather recording intervals... More about our weather records

Advertising

Vellore weather history for previous 24 hours

 ConditionsComfort  
Time TempWeatherWind HumidityBarometerVisibility
1:40 AM
Wed, Jul 8
86 °FPassing clouds.7 mph75%29.62 "Hg4 mi
1:10 AM86 °FPassing clouds.9 mph79%29.62 "Hg4 mi
12:40 AM86 °FPassing clouds.7 mph79%29.62 "Hg4 mi
12:10 AM86 °FPassing clouds.10 mph79%29.65 "Hg4 mi
11:40 PM
Tue, Jul 7
86 °FPassing clouds.12 mph79%29.65 "Hg4 mi
11:10 PM86 °FPassing clouds.12 mph79%29.65 "Hg4 mi
10:40 PM88 °FPassing clouds.8 mph70%29.68 "Hg4 mi
10:10 PM88 °FClear.9 mph70%29.65 "Hg4 mi
9:40 PM88 °FPassing clouds.12 mph70%29.65 "Hg4 mi
9:10 PM88 °FPassing clouds.10 mph70%29.65 "Hg4 mi
8:40 PM88 °FPassing clouds.13 mph70%29.65 "Hg4 mi
8:10 PM88 °FPassing clouds.14 mph70%29.62 "Hg4 mi
7:40 PM88 °FPassing clouds.10 mph70%29.62 "Hg4 mi
7:10 PM90 °FPassing clouds.13 mph63%29.62 "Hg4 mi
6:40 PM91 °FScattered clouds.14 mph52%29.59 "Hg4 mi
6:10 PM91 °FScattered clouds.13 mph52%29.59 "Hg4 mi
5:40 PM91 °FScattered clouds.13 mph52%29.59 "Hg4 mi
5:10 PM91 °FScattered clouds.14 mph56%29.59 "Hg4 mi
4:40 PM93 °FScattered clouds.14 mph49%29.56 "Hg4 mi
3:40 PM102 °FScattered clouds.7 mph26%29.56 "Hg5 mi
3:10 PM102 °FScattered clouds.13 mph26%29.56 "Hg5 mi
2:40 PM102 °FScattered clouds.9 mph27%29.56 "Hg5 mi
2:10 PM102 °FPassing clouds.9 mph26%29.59 "Hg5 mi
1:40 PM102 °FPassing clouds.12 mph27%29.59 "Hg5 mi
1:10 PM102 °FPassing clouds.12 mph27%29.59 "Hg5 mi
12:40 PM100 °FPassing clouds.14 mph31%29.59 "Hg5 mi
12:10 PM99 °FPassing clouds.12 mph35%29.62 "Hg5 mi
11:40 AM97 °FPassing clouds.12 mph37%29.62 "Hg5 mi
11:10 AM97 °FPassing clouds.14 mph37%29.65 "Hg5 mi
10:40 AM95 °FPassing clouds.12 mph39%29.65 "Hg5 mi
10:10 AM93 °FPassing clouds.14 mph41%29.68 "Hg5 mi
9:40 AM93 °FPassing clouds.14 mph41%29.68 "Hg5 mi
9:10 AM91 °FPassing clouds.12 mph44%29.68 "Hg4 mi
8:40 AM90 °FPassing clouds.14 mph49%29.68 "Hg4 mi
8:10 AM88 °FPassing clouds.14 mph52%29.68 "Hg4 mi
7:40 AM88 °FPassing clouds.12 mph52%29.68 "Hg4 mi
7:10 AM86 °FPassing clouds.16 mph55%29.65 "Hg4 mi
6:40 AM86 °FPassing clouds.12 mph55%29.65 "Hg4 mi
6:10 AM86 °FPassing clouds.9 mph52%29.65 "Hg4 mi
5:40 AM86 °FPassing clouds.9 mph49%29.65 "Hg4 mi
5:10 AM88 °FPassing clouds.9 mph46%29.65 "Hg4 mi
4:40 AM88 °FPassing clouds.9 mph46%29.62 "Hg4 mi
4:10 AM88 °FPassing clouds.12 mph49%29.62 "Hg4 mi
3:40 AM88 °FPassing clouds.12 mph49%29.62 "Hg4 mi
3:10 AM90 °FPassing clouds.14 mph46%29.62 "Hg4 mi
Weather by CustomWeather, © 2015

See weather overviewHow to use our weather pages